TimeCST,TemperatureF,Dew PointF,Humidity,Sea Level PressureIn,VisibilityMPH,Wind Direction,Wind SpeedMPH,Gust SpeedMPH,PrecipitationIn,Events,Conditions,WindDirDegrees,DateUTC
12:53 AM,24.1,16.0,71,30.37,10.0,North,18.4,27.6,N/A,,Clear,350,2013-12-11 06:53:00
1:53 AM,19.9,15.1,81,30.41,10.0,North,16.1,-,N/A,,Clear,360,2013-12-11 07:53:00
2:32 AM,19.9,14.0,78,30.36,10.0,North,17.3,-,N/A,,Mostly Cloudy,350,2013-12-11 08:32:00
2:53 AM,19.0,12.9,77,30.46,10.0,North,13.8,-,N/A,,Scattered Clouds,350,2013-12-11 08:53:00
3:53 AM,16.0,10.0,77,30.50,10.0,North,13.8,-,N/A,,Clear,10,2013-12-11 09:53:00
4:53 AM,12.9,7.0,77,30.52,10.0,North,13.8,-,N/A,,Clear,360,2013-12-11 10:53:00
5:53 AM,10.0,5.0,80,30.56,10.0,North,12.7,-,N/A,,Clear,10,2013-12-11 11:53:00
6:53 AM,7.0,1.9,80,30.60,10.0,North,11.5,-,N/A,,Clear,350,2013-12-11 12:53:00
7:53 AM,5.0,-0.0,80,30.65,10.0,NNW,5.8,-,N/A,,Partly Cloudy,340,2013-12-11 13:53:00
8:53 AM,6.1,-0.0,76,30.67,10.0,North,8.1,-,N/A,,Clear,360,2013-12-11 14:53:00
9:53 AM,8.1,-0.9,67,30.70,10.0,North,10.4,-,N/A,,Clear,360,2013-12-11 15:53:00
10:53 AM,10.0,-0.9,61,30.71,10.0,NW,5.8,-,N/A,,Clear,320,2013-12-11 16:53:00
11:53 AM,10.9,-2.0,56,30.68,10.0,West,5.8,-,N/A,,Clear,260,2013-12-11 17:53:00
12:53 PM,12.9,1.0,59,30.66,10.0,SW,8.1,-,N/A,,Clear,220,2013-12-11 18:53:00
1:53 PM,14.0,1.9,59,30.63,10.0,SW,8.1,-,N/A,,Clear,220,2013-12-11 19:53:00
2:53 PM,15.1,3.0,59,30.61,10.0,SW,8.1,-,N/A,,Clear,230,2013-12-11 20:53:00
3:53 PM,16.0,3.0,57,30.60,10.0,SW,9.2,-,N/A,,Clear,220,2013-12-11 21:53:00
4:53 PM,14.0,3.9,64,30.58,10.0,South,6.9,-,N/A,,Clear,190,2013-12-11 22:53:00
5:53 PM,10.9,1.9,67,30.57,10.0,South,6.9,-,N/A,,Clear,180,2013-12-11 23:53:00
6:53 PM,10.0,1.9,70,30.56,10.0,South,8.1,-,N/A,,Clear,180,2013-12-12 00:53:00
7:53 PM,10.9,3.0,70,30.55,10.0,South,10.4,-,N/A,,Clear,190,2013-12-12 01:53:00
8:53 PM,12.0,3.9,70,30.55,10.0,South,10.4,-,N/A,,Clear,190,2013-12-12 02:53:00
9:53 PM,12.9,6.1,74,30.53,10.0,SSW,11.5,-,N/A,,Clear,200,2013-12-12 03:53:00
10:53 PM,14.0,7.0,74,30.51,10.0,SSW,12.7,-,N/A,,Clear,200,2013-12-12 04:53:00
11:53 PM,16.0,9.0,74,30.50,10.0,SSW,11.5,-,N/A,,Clear,210,2013-12-12 05:53:00